Time,TemperatureF,DewpointF,PressureIn,WindDirection,WindDirectionDegrees,WindSpeedMPH,WindSpeedGustMPH,Humidity,HourlyPrecipIn,Conditions,Clouds,dailyrainin,SoftwareType,DateUTC
2013-03-20 00:01:00,70.0,43.0,29.97,ENE,65,3.0,9.0,37,0.00,,,-99.99,,2013-03-20 07:01:00,
2013-03-20 00:11:00,70.0,43.0,29.97,ENE,65,3.0,9.0,37,0.00,,,-99.99,,2013-03-20 07:11:00,
2013-03-20 00:21:00,70.0,43.0,29.96,NNW,335,3.0,7.0,38,0.00,,,-99.99,,2013-03-20 07:21:00,
2013-03-20 00:31:00,70.0,43.0,29.96,NW,307,3.0,10.0,38,0.00,,,-99.99,,2013-03-20 07:31:00,
2013-03-20 00:41:00,70.0,43.0,29.96,NW,307,3.0,10.0,38,0.00,,,-99.99,,2013-03-20 07:41:00,
2013-03-20 00:52:00,70.0,43.0,29.96,WNW,301,3.0,7.0,38,0.00,,,-99.99,,2013-03-20 07:52:00,
2013-03-20 01:01:00,70.0,44.0,29.96,West,277,2.0,9.0,39,0.00,,,-99.99,,2013-03-20 08:01:00,
2013-03-20 01:11:00,70.0,44.0,29.96,West,277,2.0,9.0,39,0.00,,,-99.99,,2013-03-20 08:11:00,
2013-03-20 01:21:00,70.0,43.0,29.96,NW,316,4.0,11.0,38,0.00,,,-99.99,,2013-03-20 08:21:00,
2013-03-20 01:31:00,69.0,44.0,29.96,NW,319,4.0,9.0,40,0.00,,,-99.99,,2013-03-20 08:31:00,
2013-03-20 01:41:00,69.0,44.0,29.96,North,355,4.0,11.0,40,0.00,,,-99.99,,2013-03-20 08:41:00,
2013-03-20 01:52:00,69.0,44.0,29.96,North,355,4.0,11.0,40,0.00,,,-99.99,,2013-03-20 08:52:00,
2013-03-20 02:01:00,69.0,44.0,29.96,NW,311,4.0,9.0,40,0.00,,,-99.99,,2013-03-20 09:01:00,
2013-03-20 02:11:00,69.0,44.0,29.96,NW,311,4.0,9.0,40,0.00,,,-99.99,,2013-03-20 09:11:00,
2013-03-20 02:22:00,69.0,44.0,29.95,NNW,328,3.0,10.0,41,0.00,,,-99.99,,2013-03-20 09:22:00,
2013-03-20 02:32:00,69.0,45.0,29.95,WNW,284,4.0,10.0,42,0.00,,,-99.99,,2013-03-20 09:32:00,
2013-03-20 02:42:00,69.0,45.0,29.95,WNW,284,4.0,10.0,42,0.00,,,-99.99,,2013-03-20 09:42:00,
2013-03-20 02:52:00,68.0,46.0,29.95,ENE,72,5.0,9.0,45,0.00,,,-99.99,,2013-03-20 09:52:00,
2013-03-20 03:02:00,68.0,46.0,29.94,NNE,32,3.0,9.0,46,0.00,,,-99.99,,2013-03-20 10:02:00,
2013-03-20 03:12:00,68.0,46.0,29.94,NNE,32,3.0,9.0,46,0.00,,,-99.99,,2013-03-20 10:12:00,
2013-03-20 03:22:00,68.0,47.0,29.93,WNW,293,2.0,7.0,47,0.00,,,-99.99,,2013-03-20 10:22:00,
2013-03-20 03:32:00,67.0,46.0,29.92,NW,314,2.0,7.0,47,0.00,,,-99.99,,2013-03-20 10:32:00,
2013-03-20 03:42:00,67.0,46.0,29.92,NW,314,2.0,7.0,47,0.00,,,-99.99,,2013-03-20 10:42:00,
2013-03-20 03:52:00,67.0,46.0,29.92,NNW,340,3.0,9.0,47,0.00,,,-99.99,,2013-03-20 10:52:00,
2013-03-20 04:02:00,67.0,46.0,29.92,WSW,250,3.0,9.0,46,0.00,,,-99.99,,2013-03-20 11:02:00,
2013-03-20 04:11:00,67.0,46.0,29.92,WSW,250,3.0,9.0,46,0.00,,,-99.99,,2013-03-20 11:11:00,
2013-03-20 04:21:00,68.0,44.0,29.91,NW,308,3.0,8.0,42,0.00,,,-99.99,,2013-03-20 11:21:00,
2013-03-20 04:31:00,69.0,44.0,29.92,NNW,333,3.0,11.0,40,0.00,,,-99.99,,2013-03-20 11:31:00,
2013-03-20 04:42:00,69.0,44.0,29.92,NNW,333,3.0,11.0,40,0.00,,,-99.99,,2013-03-20 11:42:00,
2013-03-20 04:52:00,69.0,44.0,29.91,NE,47,4.0,8.0,40,0.00,,,-99.99,,2013-03-20 11:52:00,
2013-03-20 05:01:00,69.0,43.0,29.91,NNE,26,3.0,10.0,39,0.00,,,-99.99,,2013-03-20 12:01:00,
2013-03-20 05:11:00,69.0,43.0,29.91,NNE,26,3.0,10.0,39,0.00,,,-99.99,,2013-03-20 12:11:00,
2013-03-20 05:21:00,69.0,43.0,29.91,NNW,330,4.0,8.0,39,0.00,,,-99.99,,2013-03-20 12:21:00,
2013-03-20 05:31:00,69.0,42.0,29.92,WNW,298,1.0,4.0,38,0.00,,,-99.99,,2013-03-20 12:31:00,
2013-03-20 05:42:00,69.0,42.0,29.92,WNW,298,1.0,4.0,38,0.00,,,-99.99,,2013-03-20 12:42:00,
2013-03-20 05:52:00,69.0,42.0,29.92,WNW,301,2.0,5.0,38,0.00,,,-99.99,,2013-03-20 12:52:00,
2013-03-20 06:01:00,69.0,42.0,29.93,NNE,18,3.0,8.0,37,0.00,,,-99.99,,2013-03-20 13:01:00,
2013-03-20 06:11:00,69.0,42.0,29.93,NNE,18,3.0,8.0,37,0.00,,,-99.99,,2013-03-20 13:11:00,
2013-03-20 06:21:00,69.0,42.0,29.93,NW,308,1.0,7.0,37,0.00,,,-99.99,,2013-03-20 13:21:00,
2013-03-20 06:31:00,69.0,42.0,29.93,NW,323,2.0,5.0,37,0.00,,,-99.99,,2013-03-20 13:31:00,
2013-03-20 06:41:00,69.0,42.0,29.93,NW,323,2.0,5.0,37,0.00,,,-99.99,,2013-03-20 13:41:00,
2013-03-20 06:52:00,69.0,42.0,29.93,NNE,19,3.0,8.0,37,0.00,,,-99.99,,2013-03-20 13:52:00,
2013-03-20 07:01:00,69.0,42.0,29.94,WSW,257,1.0,11.0,37,0.00,,,-99.99,,2013-03-20 14:01:00,
2013-03-20 07:11:00,69.0,42.0,29.94,WSW,257,1.0,11.0,37,0.00,,,-99.99,,2013-03-20 14:11:00,
2013-03-20 07:21:00,69.0,42.0,29.93,NW,316,1.0,6.0,37,0.00,,,-99.99,,2013-03-20 14:21:00,
2013-03-20 07:31:00,69.0,42.0,29.93,NNW,348,1.0,4.0,38,0.00,,,-99.99,,2013-03-20 14:31:00,
2013-03-20 07:41:00,69.0,42.0,29.93,NNW,348,1.0,4.0,38,0.00,,,-99.99,,2013-03-20 14:41:00,
2013-03-20 07:52:00,69.0,42.0,29.93,West,259,2.0,6.0,37,0.00,,,-99.99,,2013-03-20 14:52:00,
2013-03-20 08:01:00,69.0,42.0,29.94,NE,36,1.0,5.0,37,0.00,,,-99.99,,2013-03-20 15:01:00,
2013-03-20 08:12:00,69.0,41.0,29.94,North,351,2.0,5.0,36,0.00,,,-99.99,,2013-03-20 15:12:00,
2013-03-20 08:21:00,69.0,41.0,29.94,North,351,2.0,5.0,36,0.00,,,-99.99,,2013-03-20 15:21:00,
2013-03-20 08:32:00,70.0,42.0,29.95,NNW,337,3.0,6.0,36,0.00,,,-99.99,,2013-03-20 15:32:00,
2013-03-20 08:42:00,70.0,42.0,29.95,NNW,337,3.0,6.0,36,0.00,,,-99.99,,2013-03-20 15:42:00,
2013-03-20 08:52:00,70.0,42.0,29.95,NNE,25,1.0,7.0,36,0.00,,,-99.99,,2013-03-20 15:52:00,
2013-03-20 09:02:00,71.0,43.0,29.95,NE,40,2.0,6.0,36,0.00,,,-99.99,,2013-03-20 16:02:00,
2013-03-20 09:12:00,71.0,43.0,29.95,NE,40,2.0,6.0,36,0.00,,,-99.99,,2013-03-20 16:12:00,
2013-03-20 09:22:00,71.0,43.0,29.95,West,270,1.0,3.0,36,0.00,,,-99.99,,2013-03-20 16:22:00,
2013-03-20 09:32:00,70.0,45.0,29.95,NW,312,0.0,4.0,40,0.00,,,-99.99,,2013-03-20 16:32:00,
2013-03-20 09:42:00,70.0,45.0,29.95,NW,312,0.0,4.0,40,0.00,,,-99.99,,2013-03-20 16:42:00,
2013-03-20 09:52:00,72.0,45.0,29.95,North,352,0.0,1.0,38,0.00,,,-99.99,,2013-03-20 16:52:00,
2013-03-20 10:02:00,76.0,44.0,29.95,SW,229,2.0,4.0,32,0.00,,,-99.99,,2013-03-20 17:02:00,
2013-03-20 10:11:00,76.0,44.0,29.95,SW,229,2.0,4.0,32,0.00,,,-99.99,,2013-03-20 17:11:00,
2013-03-20 10:21:00,78.0,44.0,29.94,ESE,115,1.0,3.0,30,0.00,,,-99.99,,2013-03-20 17:21:00,
2013-03-20 10:32:00,78.0,43.0,29.95,SSE,159,2.0,4.0,29,0.00,,,-99.99,,2013-03-20 17:32:00,
2013-03-20 10:42:00,78.0,43.0,29.95,SSE,159,2.0,4.0,29,0.00,,,-99.99,,2013-03-20 17:42:00,
2013-03-20 10:52:00,80.0,44.0,29.94,SE,124,0.0,3.0,28,0.00,,,-99.99,,2013-03-20 17:52:00,
2013-03-20 11:01:00,79.0,46.0,29.94,ENE,73,2.0,4.0,31,0.00,,,-99.99,,2013-03-20 18:01:00,
2013-03-20 11:11:00,79.0,46.0,29.94,ENE,73,2.0,4.0,31,0.00,,,-99.99,,2013-03-20 18:11:00,
2013-03-20 11:21:00,79.0,48.0,29.94,ESE,108,2.0,5.0,34,0.00,,,-99.99,,2013-03-20 18:21:00,
2013-03-20 11:32:00,78.0,48.0,29.94,ESE,120,2.0,6.0,35,0.00,,,-99.99,,2013-03-20 18:32:00,
2013-03-20 11:42:00,78.0,48.0,29.94,ESE,120,2.0,6.0,35,0.00,,,-99.99,,2013-03-20 18:42:00,
2013-03-20 11:52:00,79.0,49.0,29.93,ENE,75,3.0,6.0,35,0.00,,,-99.99,,2013-03-20 18:52:00,
2013-03-20 12:01:00,79.0,47.0,29.93,SSE,149,3.0,6.0,32,0.00,,,-99.99,,2013-03-20 19:01:00,
2013-03-20 12:21:00,80.0,47.0,29.93,ESE,104,2.0,5.0,31,0.00,,,-99.99,,2013-03-20 19:21:00,
2013-03-20 12:41:00,81.0,47.0,29.92,East,94,3.0,6.0,30,0.00,,,-99.99,,2013-03-20 19:41:00,
2013-03-20 12:52:00,82.0,44.0,29.91,SE,128,2.0,5.0,26,0.00,,,-99.99,,2013-03-20 19:52:00,
2013-03-20 13:01:00,84.0,45.0,29.91,SE,131,2.0,7.0,26,0.00,,,-99.99,,2013-03-20 20:01:00,
2013-03-20 13:11:00,84.0,45.0,29.91,SE,131,2.0,7.0,26,0.00,,,-99.99,,2013-03-20 20:11:00,
2013-03-20 13:21:00,85.0,44.0,29.90,SE,134,2.0,6.0,24,0.00,,,-99.99,,2013-03-20 20:21:00,
2013-03-20 13:31:00,86.0,43.0,29.89,SW,236,2.0,7.0,22,0.00,,,-99.99,,2013-03-20 20:31:00,
2013-03-20 13:41:00,86.0,43.0,29.89,SW,236,2.0,7.0,22,0.00,,,-99.99,,2013-03-20 20:41:00,
2013-03-20 13:52:00,87.0,41.0,29.88,WSW,246,2.0,8.0,20,0.00,,,-99.99,,2013-03-20 20:52:00,
2013-03-20 14:01:00,87.0,38.0,29.87,NNW,338,3.0,8.0,18,0.00,,,-99.99,,2013-03-20 21:01:00,
2013-03-20 14:11:00,87.0,38.0,29.87,NNW,338,3.0,8.0,18,0.00,,,-99.99,,2013-03-20 21:11:00,
2013-03-20 14:21:00,86.0,40.0,29.87,WSW,246,6.0,18.0,20,0.00,,,-99.99,,2013-03-20 21:21:00,
2013-03-20 14:32:00,84.0,41.0,29.86,ENE,57,9.0,18.0,22,0.00,,,-99.99,,2013-03-20 21:32:00,
2013-03-20 14:41:00,84.0,41.0,29.86,ENE,57,9.0,18.0,22,0.00,,,-99.99,,2013-03-20 21:41:00,
2013-03-20 14:52:00,83.0,40.0,29.85,West,271,9.0,18.0,22,0.00,,,-99.99,,2013-03-20 21:52:00,
2013-03-20 15:02:00,82.0,39.0,29.85,NW,305,9.0,25.0,22,0.00,,,-99.99,,2013-03-20 22:02:00,
2013-03-20 15:12:00,82.0,39.0,29.85,NW,305,9.0,25.0,22,0.00,,,-99.99,,2013-03-20 22:12:00,
2013-03-20 15:22:00,83.0,39.0,29.84,WSW,250,9.0,21.0,21,0.00,,,-99.99,,2013-03-20 22:22:00,
2013-03-20 15:32:00,83.0,39.0,29.84,NW,316,12.0,23.0,21,0.00,,,-99.99,,2013-03-20 22:32:00,
2013-03-20 15:42:00,83.0,39.0,29.84,NW,316,12.0,23.0,21,0.00,,,-99.99,,2013-03-20 22:42:00,
2013-03-20 15:52:00,83.0,41.0,29.84,West,272,11.0,20.0,23,0.00,,,-99.99,,2013-03-20 22:52:00,
2013-03-20 16:01:00,83.0,41.0,29.83,WNW,297,9.0,22.0,23,0.00,,,-99.99,,2013-03-20 23:01:00,
2013-03-20 16:11:00,83.0,41.0,29.83,WNW,297,9.0,22.0,23,0.00,,,-99.99,,2013-03-20 23:11:00,
2013-03-20 16:22:00,82.0,41.0,29.82,West,264,9.0,26.0,23,0.00,,,-99.99,,2013-03-20 23:22:00,
2013-03-20 16:31:00,83.0,40.0,29.82,WSW,256,11.0,26.0,22,0.00,,,-99.99,,2013-03-20 23:31:00,
2013-03-20 16:42:00,83.0,40.0,29.82,WSW,256,11.0,26.0,22,0.00,,,-99.99,,2013-03-20 23:42:00,
2013-03-20 16:52:00,83.0,39.0,29.83,West,276,9.0,18.0,21,0.00,,,-99.99,,2013-03-20 23:52:00,
2013-03-20 17:01:00,83.0,38.0,29.82,NW,326,10.0,24.0,20,0.00,,,-99.99,,2013-03-21 00:01:00,
2013-03-20 17:11:00,83.0,38.0,29.82,NW,326,10.0,24.0,20,0.00,,,-99.99,,2013-03-21 00:11:00,
2013-03-20 17:22:00,82.0,38.0,29.82,WSW,249,9.0,22.0,21,0.00,,,-99.99,,2013-03-21 00:22:00,
2013-03-20 17:32:00,80.0,38.0,29.82,WNW,297,13.0,24.0,22,0.00,,,-99.99,,2013-03-21 00:32:00,
2013-03-20 17:41:00,80.0,38.0,29.82,WNW,297,13.0,24.0,22,0.00,,,-99.99,,2013-03-21 00:41:00,
2013-03-20 17:52:00,80.0,37.0,29.81,NW,312,11.0,25.0,21,0.00,,,-99.99,,2013-03-21 00:52:00,
2013-03-20 18:01:00,79.0,38.0,29.81,NW,319,13.0,26.0,23,0.00,,,-99.99,,2013-03-21 01:01:00,
2013-03-20 18:11:00,79.0,38.0,29.81,NW,319,13.0,26.0,23,0.00,,,-99.99,,2013-03-21 01:11:00,
2013-03-20 18:21:00,77.0,38.0,29.80,NW,308,12.0,28.0,25,0.00,,,-99.99,,2013-03-21 01:21:00,
2013-03-20 18:31:00,77.0,39.0,29.81,West,263,11.0,26.0,26,0.00,,,-99.99,,2013-03-21 01:31:00,
2013-03-20 18:41:00,77.0,39.0,29.81,West,263,11.0,26.0,26,0.00,,,-99.99,,2013-03-21 01:41:00,
2013-03-20 18:52:00,76.0,38.0,29.82,WSW,257,12.0,26.0,25,0.00,,,-99.99,,2013-03-21 01:52:00,
2013-03-20 19:01:00,76.0,39.0,29.82,SW,226,10.0,25.0,26,0.00,,,-99.99,,2013-03-21 02:01:00,
2013-03-20 19:11:00,76.0,39.0,29.82,SW,226,10.0,25.0,26,0.00,,,-99.99,,2013-03-21 02:11:00,
2013-03-20 19:22:00,75.0,39.0,29.82,North,358,12.0,22.0,27,0.00,,,-99.99,,2013-03-21 02:22:00,
2013-03-20 19:31:00,74.0,40.0,29.82,WNW,285,8.0,22.0,29,0.00,,,-99.99,,2013-03-21 02:31:00,
2013-03-20 19:41:00,74.0,40.0,29.82,WNW,285,8.0,22.0,29,0.00,,,-99.99,,2013-03-21 02:41:00,
2013-03-20 19:52:00,74.0,40.0,29.82,WNW,285,8.0,22.0,29,0.00,,,-99.99,,2013-03-21 02:52:00,
2013-03-20 20:01:00,73.0,43.0,29.83,NW,305,6.0,21.0,34,0.00,,,-99.99,,2013-03-21 03:01:00,
2013-03-20 20:21:00,73.0,44.0,29.82,SSW,201,6.0,19.0,36,0.00,,,-99.99,,2013-03-21 03:21:00,
2013-03-20 20:32:00,72.0,45.0,29.83,NNW,330,7.0,15.0,38,0.00,,,-99.99,,2013-03-21 03:32:00,
2013-03-20 20:42:00,72.0,45.0,29.83,NNW,330,7.0,15.0,38,0.00,,,-99.99,,2013-03-21 03:42:00,
2013-03-20 20:53:00,71.0,46.0,29.83,SSW,210,7.0,19.0,41,0.00,,,-99.99,,2013-03-21 03:53:00,
2013-03-20 21:02:00,71.0,48.0,29.82,North,355,9.0,21.0,44,0.00,,,-99.99,,2013-03-21 04:02:00,
2013-03-20 21:22:00,70.0,48.0,29.82,NW,314,10.0,18.0,45,0.00,,,-99.99,,2013-03-21 04:22:00,
2013-03-20 21:32:00,70.0,48.0,29.82,WNW,297,9.0,17.0,45,0.00,,,-99.99,,2013-03-21 04:32:00,
2013-03-20 21:42:00,70.0,48.0,29.82,WNW,297,9.0,17.0,45,0.00,,,-99.99,,2013-03-21 04:42:00,
2013-03-20 21:53:00,70.0,49.0,29.83,West,277,8.0,16.0,47,0.00,,,-99.99,,2013-03-21 04:53:00,
2013-03-20 22:02:00,70.0,48.0,29.82,NW,312,5.0,17.0,45,0.00,,,-99.99,,2013-03-21 05:02:00,
2013-03-20 22:12:00,70.0,48.0,29.82,NW,312,5.0,17.0,45,0.00,,,-99.99,,2013-03-21 05:12:00,
2013-03-20 22:21:00,70.0,47.0,29.81,WNW,287,7.0,15.0,44,0.00,,,-99.99,,2013-03-21 05:21:00,
2013-03-20 22:32:00,70.0,48.0,29.80,NW,318,7.0,14.0,46,0.00,,,-99.99,,2013-03-21 05:32:00,
2013-03-20 22:42:00,70.0,48.0,29.80,WNW,285,4.0,9.0,45,0.00,,,-99.99,,2013-03-21 05:42:00,
2013-03-20 22:52:00,70.0,48.0,29.80,WNW,285,4.0,9.0,45,0.00,,,-99.99,,2013-03-21 05:52:00,
2013-03-20 23:01:00,70.0,47.0,29.80,WNW,283,4.0,9.0,44,0.00,,,-99.99,,2013-03-21 06:01:00,
2013-03-20 23:11:00,70.0,47.0,29.80,WNW,283,4.0,9.0,44,0.00,,,-99.99,,2013-03-21 06:11:00,
2013-03-20 23:21:00,70.0,47.0,29.80,NNE,22,6.0,15.0,44,0.00,,,-99.99,,2013-03-21 06:21:00,
2013-03-20 23:31:00,70.0,48.0,29.80,NNE,12,8.0,19.0,46,0.00,,,-99.99,,2013-03-21 06:31:00,
2013-03-20 23:41:00,70.0,48.0,29.80,NNE,12,8.0,19.0,46,0.00,,,-99.99,,2013-03-21 06:41:00,
2013-03-20 23:52:00,69.0,47.0,29.79,NW,304,7.0,17.0,46,0.00,,,-99.99,,2013-03-21 06:52:00,